Simultaneous Nadir Overpasses (SNOs) Predictions

Prediction of SNOs between NOAA-19 and TERRA Satellite Orbit:

Table of predicted SNOs for the next 14.0 days since TLE Epoch: 8/15/2020
Index Date (NOAA-19) Time (NOAA-19) Lat,Lon (NOAA-19) SZA (NOAA-19 ) Date (TERRA) Time (TERRA) Lat,Lon (TERRA) SZA (TERRA ) Distance(km) Time Diff (sec)
1 08/16/2020 20:34:55 -79.66, 80.41 112.49 08/16/2020 20:36:01 -79.64, 80.34 112.49 1.99 66
2 08/16/2020 21:25:54 79.62,-111.92 67.53 08/16/2020 21:25:27 79.65,-111.99 67.54 3.56 27
3 08/19/2020 02:59:10 -79.64, -15.32 111.74 08/19/2020 02:59:12 -79.67, -15.30 111.71 3.36 2
4 08/21/2020 08:32:28 79.67, 81.10 69.02 08/21/2020 08:32:57 79.66, 81.21 69.03 2.36 29
5 08/21/2020 09:23:26 -79.64,-111.35 110.97 08/21/2020 09:22:25 -79.63,-111.39 111.01 1.77 61
6 08/23/2020 14:05:42 -79.66, 177.95 110.21 08/23/2020 14:06:43 -79.67, 177.85 110.19 2.12 61
7 08/23/2020 14:56:44 79.66, -14.79 69.80 08/23/2020 14:56:10 79.63, -14.79 69.77 3.09 34
8 08/25/2020 20:29:57 -79.67, 81.88 109.41 08/25/2020 20:29:55 -79.66, 81.96 109.42 2.04 2
9 08/28/2020 02:03:15 79.66, 178.71 71.39 08/28/2020 02:03:40 79.69, 178.74 71.43 2.73 25
